SL-8 R/B (21938 NORAD) Tracking and Keplerian Element Data

This shows tracking and keplerian element data for the satellite.

Feedback or suggestion? Click here.




ElementValue
Catalog21938
NameSL-8 R/B
Epoch Orbit59298
Epoch Day12.97401958
Epoch Year2024
RAAN18.0089
Inclination82.9292
Eccentricity0.0028648
Argument of Perigee336.2917
Mean Anonmoly84.0495
Mean Motion13.7538758
Decay Rate1E-08
L11 21938U 92020B 24012.97401958 .00000001 00000+0 -14206-4 0 9996
L22 21938 82.9292 18.0089 0028648 336.2917 84.0495 13.75387580592982



Live tracking and technical data element details for SL-8 R/B (NORAD 21938). SL-8 R/B can be tracked NOW for your location showing map with azimuth and elevation plus other details from your city location.







IsCatalogInMostPopularTable: catalog: 21938, numindb: 286
Update: records affected: 1



GetName: 21938 SL-8 R/B

Hit Count: updated at: Sun, 14 Apr 2024 22:51:31 GMT